User: anonymous   Login
Location: Cabeza de los Veneras
(40.2000°N, 5.2000°W)
Time: 07:24:45
(UTC+00:00)
Language:

Tiangong - Orbit

View from above orbital plane
View from above orbital plane
View from above satellite
View from above satellite

Ground track
Ground track

The orbit data is extracted from the following two-line orbital elements,

1 48274U 21035A   24166.86387117  .00020257  00000-0  23035-3 0  9998
2 48274  41.4677  97.2814 0003657 227.5883 132.4647 15.61809772178732
Epoch (UTC): 14 June 2024 20:43:58
Eccentricity: 0.0003657
inclination: 41.4677°
perigee height: 380 km
apogee height: 385 km
right ascension of ascending node: 97.2814°
argument of perigee: 227.5883°
revolutions per day: 15.61809772
mean anomaly at epoch: 132.4647°
orbit number at epoch: 17873

The dashed part of the orbit path shows where the satellite is in the earth's shadow,  

DLR